User: anonymous   Login
Location: Newark
(55.7681°N, 37.7103°E)
Time: 05:07:49
(UTC+00:00)
Language:

XW-2C - Orbit

View from above orbital plane
View from above orbital plane
View from above satellite
View from above satellite

Ground track
Ground track

The orbit data is extracted from the following two-line orbital elements,

1 40906U 15049H   19340.38818984  .00000602  00000-0  34902-4 0  9994
2 40906  97.4727 339.7010 0014037 333.4681 133.7663 15.15850149232851
Epoch (UTC): 06 December 2019 09:18:59
Eccentricity: 0.0014037
inclination: 97.4727°
perigee height: 509 km
apogee height: 528 km
right ascension of ascending node: 339.7010°
argument of perigee: 333.4681°
revolutions per day: 15.15850149
mean anomaly at epoch: 133.7663°
orbit number at epoch: 23285

The dashed part of the orbit path shows where the satellite is in the earth's shadow,  

DLR